Meteo Giornale » Osservazioni meteo Svizzera » Meiringen

ore: 15:50 - Osservazioni Meteo Meiringen
Lat. 46° 45' N Lon. 8° 7' E Alt. 577 metri s.l.m.

coperto Europe/Zurich

2 °C

Coperto

Temp. 24 Ore

-3 °C

2 °C

Sud

7.4 Km/h

Dew point -1 °C

Umidità 80 %

Visibilità  10 Km

Il sole sorge alle ore 07:47

Il sole tramonta alle ore 16:44

Data e Ora Cielo e Fenomeni T °C DP °C Um. % Pres. hPa Vis. km Vento km/h
Oggi h: 15:50 coperto Coperto 2 -1 80 1020 10 S 7.4
Oggi h: 15:20 coperto Coperto 2 -1 80 1019 10 N 13
Oggi h: 14:50 coperto Coperto 2 -1 80 1019 10 N 7.4
Oggi h: 14:20 coperto Coperto 2 -1 80 1019 10 N 7.4
Oggi h: 13:50 coperto Coperto 2 -1 80 1019 10 SE 13
Oggi h: 13:20 coperto Coperto 2 -1 80 1019 10 N 9.3
Oggi h: 12:50 coperto Coperto 2 -1 80 1019 10 SE 11.1
Oggi h: 12:20 coperto Coperto 2 -1 80 1019 10 SE 14.8
Oggi h: 11:50 coperto Coperto 2 -1 80 1019 10 N 7.4
Oggi h: 11:20 coperto Coperto 1 -1 86 1019 10 N 11.1
Oggi h: 10:50 coperto Coperto 1 -1 86 1019 10 SE 13
Oggi h: 10:20 coperto Coperto 1 -1 86 1019 10 E 16.7
Oggi h: 09:50 coperto Coperto 1 -1 86 1019 10 N 13
Oggi h: 09:20 coperto Coperto 1 -1 86 1018 10 N 9.3
Oggi h: 08:50 coperto Coperto 1 -1 86 1018 10 E 11.1
Oggi h: 08:20 coperto Coperto 0 -1 92 1018 10 E/NE 9.3
Oggi h: 07:50 coperto Coperto 0 -1 92 1018 10 E 11.1
Oggi h: 07:20 coperto Coperto 0 -1 92 1018 10 N 9.3
Oggi h: 06:50 coperto Coperto 1 -1 86 1018 10 E 9.3
Oggi h: 06:20 coperto Coperto 1 -1 86 1017 10 E 11.1
Oggi h: 05:50 coperto Coperto 1 -1 86 1017 10 E 16.7
Oggi h: 04:50 coperto Coperto 1 -0 93 1017 10 E/NE 24
Oggi h: 04:20 coperto Coperto 1 -1 86 1017 10 E/NE 22.2
Oggi h: 03:50 coperto Coperto 1 -0 93 1017 10 E/NE 24
Oggi h: 03:20 molto_nuvoloso Molto Nuvoloso 1 -1 86 1017 10 E/NE 20.3
Oggi h: 02:50 coperto Coperto 1 -1 86 1017 10 E/NE 24
Oggi h: 02:20 coperto Coperto 1 -0 93 1016 10 E/NE 22.2
Oggi h: 01:50 coperto Coperto -0 -1 92 1016 10 E 11.1
Oggi h: 01:20 coperto Coperto -1 -1 100 1017 10 E 11.1
Oggi h: 00:50 coperto Coperto -0 -1 92 1017 10 E 11.1
Oggi h: 00:20 molto_nuvoloso Molto Nuvoloso 1 -0 93 1016 10 N 5.5
Ieri h: 23:50 molto_nuvoloso Molto Nuvoloso 0 -0 100 1016 10 NE 16.7
Ieri h: 23:20 nuvoloso Nuvoloso 0 -0 100 1016 10 E 18.5
Ieri h: 22:50 molto_nuvoloso Molto Nuvoloso 0 -0 100 1016 10 E/NE 20.3
Ieri h: 22:20 molto_nuvoloso Molto Nuvoloso 0 0 100 1016 10 NE 16.7
Ieri h: 21:50 molto_nuvoloso Molto Nuvoloso -1 -1 100 1016 10 N 5.5
Ieri h: 21:20 nuvoloso Nuvoloso -1 -1 100 1016 10 N 3.7
Ieri h: 20:50 nuvoloso Nuvoloso -3 -3 100 1015 6 E/SE 11.1
Ieri h: 19:50 poco_nuvoloso Poco Nuvoloso 0 0 100 1015 10 N 1.8
Ieri h: 19:20 nuvoloso Nuvoloso 0 0 100 1015 10 NE 22.2
Ieri h: 18:50 molto_nuvoloso Molto Nuvoloso -0 -0 100 1015 9 N 5.5
Ieri h: 18:20 poco_nuvoloso Poco Nuvoloso -1 -1 100 1015 6 N 1.8
Ieri h: 17:50 foschia Foschia -3 -3 100 1014 0.8 N 5.5
Ieri h: 16:50 sereno Sereno -0 -0 100 1014 10 N 3.7
Ieri h: 16:20 sereno Sereno -1 -1 100 1014 9 N/NE 7.4
Ieri h: 15:50 sereno Sereno -2 -2 100 1014 8 N 3.7